sat.trackr.live / text

‹ back to catalog

STARLINK-34185

NORAD 64744 · 2025-144W

PAYLOAD ACTIVE UNKNOWN

§ Identity

Operator
Country
US
Launch date
2025-07-02
Launch site
AFETR
Launch vehicle
Mass (kg)
RCS (m²)

Purposes: comms

External: N2YO · Heavens-Above · Gunter

§ Orbital elements

Epoch: 2026-05-24T20:03:47.080512Z

Period
94.11 min
Inclination
53.1585°
Eccentricity
0.0000849
Mean motion
15.30192519 rev/d
Perigee alt
474.7 km
Apogee alt
475.8 km
Semi-major
6,853.4 km
B*
4.9889e-4
RAAN
187.1015°
Arg perigee
88.0778°
Mean anomaly
272.0320°
Rev number
5,137

§ Raw data

STARLINK-341851 64744U 25144W   26144.83596158  .00014442  00000+0  49889-3 0  99982 64744  53.1585 187.1015 0000849  88.0778 272.0320 15.30192519 51374

JSON: /api/v1/satellites/64744 · /tle

For live sub-satellite position, see the globe view (requires WebGL).

§ Visibility from observer

Set your observer location to see the next 7 days of passes ≥ 10°. The values pass through the URL so the page stays shareable.

No JS? Fill the form by hand. The geolocation button needs JavaScript.